Location: El Águila
(10.4167°N, 66.7167°W)
Time: 05:42:14
(UTC+00:00)

COBE Rocket - Pass Details

Date: 02 October 2022
Orbit: 680 x 780 km, 97.1° (Epoch: 26 November)

Event Time Altitude Azimuth Distance (km) Brightness Sun altitude
Rises 23:23:44 0° 166° (SSE) 3,218 7.1 -17.3°
Reaches altitude 10° 23:26:04 10° 165° (SSE) 2,280 6.3 -17.9°
Maximum altitude 23:31:06 77° 79° (E) 762 3.8 -19.1°
Drops below altitude 10° 23:35:58 10° 353° (N) 2,216 6.5 -20.3°
Sets 23:38:13 0° 352° (N) 3,121 7.3 -20.9°
